contact:dominique.lefevre@mio.osupytheas.fr, maurice.libes@osupytheas.fr, didier.mallarino@osupytheas.fr
Project:EMSO http://www.emso-fr.org/EMSO-France
Depth: 2436.0 m
Title:EMSO Ligure Ouest : Data MII capteur MICROCAT
DateTime_Computer,Latitude,Longitude,Temperature,Conductivity,Pressure,DateTime_Instrument
DateTime_Computer,Latitude,Longitude,degC,S m-1,dbar,DateTime_Instrument
2021-07-13T00:01:26Z,42.805,6.029,13.3042,4.60062,2470.47,2021-7-13T02:02:42Z
2021-07-13T00:04:29Z,42.805,6.029,13.3048,4.60040,2470.497,2021-7-13T02:05:45Z
2021-07-13T00:07:32Z,42.805,6.029,13.3049,4.60050,2470.497,2021-7-13T02:08:48Z
2021-07-13T00:10:35Z,42.805,6.029,13.3058,4.60052,2470.474,2021-7-13T02:11:51Z
2021-07-13T00:13:39Z,42.805,6.029,13.3057,4.60067,2470.474,2021-7-13T02:14:54Z
2021-07-13T00:16:42Z,42.805,6.029,13.3056,4.60058,2470.46,2021-7-13T02:17:57Z
2021-07-13T00:19:45Z,42.805,6.029,13.3054,4.60055,2470.437,2021-7-13T02:21:01Z
2021-07-13T00:22:48Z,42.805,6.029,13.3038,4.60060,2470.474,2021-7-13T02:24:04Z
2021-07-13T00:25:51Z,42.805,6.029,13.3041,4.60056,2470.45,2021-7-13T02:27:07Z
2021-07-13T00:28:54Z,42.805,6.029,13.3046,4.60061,2470.46,2021-7-13T02:30:10Z
2021-07-13T00:31:57Z,42.805,6.029,13.3048,4.60058,2470.474,2021-7-13T02:33:13Z
2021-07-13T00:35:00Z,42.805,6.029,13.3051,4.60050,2470.45,2021-7-13T02:36:16Z
2021-07-13T00:38:03Z,42.805,6.029,13.3053,4.60058,2470.46,2021-7-13T02:39:19Z
2021-07-13T00:41:07Z,42.805,6.029,13.3056,4.60037,2470.45,2021-7-13T02:42:22Z
2021-07-13T00:44:10Z,42.805,6.029,13.3056,4.60052,2470.474,2021-7-13T02:45:25Z
2021-07-13T00:47:13Z,42.805,6.029,13.3054,4.60035,2470.437,2021-7-13T02:48:29Z
2021-07-13T00:50:16Z,42.805,6.029,13.3082,4.60038,2470.413,2021-7-13T02:51:32Z
2021-07-13T00:53:19Z,42.805,6.029,13.3065,4.60034,2470.45,2021-7-13T02:54:35Z
2021-07-13T00:56:22Z,42.805,6.029,13.3054,4.60031,2470.404,2021-7-13T02:57:38Z
2021-07-13T00:59:25Z,42.805,6.029,13.3029,4.60039,2470.413,2021-7-13T03:00:41Z
2021-07-13T01:02:28Z,42.805,6.029,13.3054,4.60045,2470.413,2021-7-13T03:03:44Z
2021-07-13T01:05:32Z,42.805,6.029,13.3039,4.60052,2470.427,2021-7-13T03:06:47Z
2021-07-13T01:08:35Z,42.805,6.029,13.3026,4.60050,2470.45,2021-7-13T03:09:51Z
2021-07-13T01:11:38Z,42.805,6.029,13.3032,4.60057,2470.45,2021-7-13T03:12:54Z
2021-07-13T01:14:41Z,42.805,6.029,13.3028,4.60044,2470.427,2021-7-13T03:15:57Z
2021-07-13T01:17:44Z,42.805,6.029,13.3034,4.60032,2470.45,2021-7-13T03:19:00Z
2021-07-13T01:20:47Z,42.805,6.029,13.3032,4.60019,2470.413,2021-7-13T03:22:03Z
2021-07-13T01:23:50Z,42.805,6.029,13.3009,4.60023,2470.437,2021-7-13T03:25:06Z
2021-07-13T01:26:53Z,42.805,6.029,13.3011,4.60031,2470.45,2021-7-13T03:28:09Z
2021-07-13T01:29:57Z,42.805,6.029,13.3015,4.60029,2470.413,2021-7-13T03:31:12Z
2021-07-13T01:33:00Z,42.805,6.029,13.3022,4.60024,2470.39,2021-7-13T03:34:15Z
2021-07-13T01:36:03Z,42.805,6.029,13.3012,4.60026,2470.427,2021-7-13T03:37:19Z
2021-07-13T01:39:06Z,42.805,6.029,13.3019,4.60038,2470.437,2021-7-13T03:40:22Z
2021-07-13T01:42:09Z,42.805,6.029,13.3029,4.60074,2470.427,2021-7-13T03:43:25Z
2021-07-13T01:45:12Z,42.805,6.029,13.3039,4.60067,2470.39,2021-7-13T03:46:28Z
2021-07-13T01:48:15Z,42.805,6.029,13.3048,4.60049,2470.39,2021-7-13T03:49:31Z
2021-07-13T01:51:18Z,42.805,6.029,13.3045,4.60031,2470.38,2021-7-13T03:52:34Z
2021-07-13T01:54:22Z,42.805,6.029,13.3052,4.60024,2470.39,2021-7-13T03:55:37Z
2021-07-13T01:57:25Z,42.805,6.029,13.3056,4.60032,2470.413,2021-7-13T03:58:40Z
2021-07-13T02:00:28Z,42.805,6.029,13.3055,4.60023,2470.404,2021-7-13T04:01:44Z
2021-07-13T02:03:31Z,42.805,6.029,13.3075,4.60021,2470.38,2021-7-13T04:04:47Z
2021-07-13T02:06:34Z,42.805,6.029,13.3048,4.60025,2470.39,2021-7-13T04:07:50Z
2021-07-13T02:09:37Z,42.805,6.029,13.3046,4.60051,2470.404,2021-7-13T04:10:53Z
2021-07-13T02:12:40Z,42.805,6.029,13.3048,4.60042,2470.38,2021-7-13T04:13:56Z
2021-07-13T02:15:43Z,42.805,6.029,13.3063,4.60025,2470.357,2021-7-13T04:16:59Z
2021-07-13T02:18:47Z,42.805,6.029,13.3054,4.60043,2470.404,2021-7-13T04:20:02Z
2021-07-13T02:21:50Z,42.805,6.029,13.3046,4.60038,2470.357,2021-7-13T04:23:05Z
2021-07-13T02:24:53Z,42.805,6.029,13.3048,4.60031,2470.404,2021-7-13T04:26:09Z
2021-07-13T02:27:56Z,42.805,6.029,13.3057,4.60032,2470.427,2021-7-13T04:29:12Z
2021-07-13T02:30:59Z,42.805,6.029,13.3059,4.60023,2470.39,2021-7-13T04:32:15Z
2021-07-13T02:34:02Z,42.805,6.029,13.3076,4.60026,2470.413,2021-7-13T04:35:18Z
2021-07-13T02:37:05Z,42.805,6.029,13.3067,4.60034,2470.343,2021-7-13T04:38:21Z
2021-07-13T02:40:08Z,42.805,6.029,13.3056,4.60032,2470.38,2021-7-13T04:41:24Z
2021-07-13T02:43:12Z,42.805,6.029,13.3054,4.60046,2470.38,2021-7-13T04:44:27Z
2021-07-13T02:46:15Z,42.805,6.029,13.3050,4.60046,2470.39,2021-7-13T04:47:30Z
2021-07-13T02:49:18Z,42.805,6.029,13.3036,4.60044,2470.334,2021-7-13T04:50:34Z
2021-07-13T02:52:21Z,42.805,6.029,13.3041,4.60034,2470.404,2021-7-13T04:53:37Z
2021-07-13T02:55:24Z,42.805,6.029,13.3013,4.60026,2470.366,2021-7-13T04:56:40Z
2021-07-13T02:58:27Z,42.805,6.029,13.3011,4.60031,2470.343,2021-7-13T04:59:43Z
2021-07-13T03:01:30Z,42.805,6.029,13.3013,4.60034,2470.39,2021-7-13T05:02:46Z
2021-07-13T03:04:33Z,42.805,6.029,13.3016,4.60046,2470.38,2021-7-13T05:05:49Z
2021-07-13T03:07:37Z,42.805,6.029,13.3042,4.60040,2470.343,2021-7-13T05:08:52Z
2021-07-13T03:10:40Z,42.805,6.029,13.3056,4.60039,2470.366,2021-7-13T05:11:55Z
2021-07-13T03:13:43Z,42.805,6.029,13.3041,4.60035,2470.357,2021-7-13T05:14:59Z
2021-07-13T03:16:46Z,42.805,6.029,13.3043,4.60072,2470.366,2021-7-13T05:18:02Z
2021-07-13T03:19:49Z,42.805,6.029,13.3028,4.60048,2470.357,2021-7-13T05:21:05Z
2021-07-13T03:22:52Z,42.805,6.029,13.3034,4.60033,2470.343,2021-7-13T05:24:08Z
2021-07-13T03:25:55Z,42.805,6.029,13.3038,4.60044,2470.357,2021-7-13T05:27:11Z
2021-07-13T03:28:58Z,42.805,6.029,13.3026,4.60038,2470.39,2021-7-13T05:30:14Z
2021-07-13T03:32:02Z,42.805,6.029,13.3038,4.60057,2470.38,2021-7-13T05:33:17Z
2021-07-13T03:35:05Z,42.805,6.029,13.3048,4.60068,2470.366,2021-7-13T05:36:20Z
2021-07-13T03:38:08Z,42.805,6.029,13.3052,4.60061,2470.357,2021-7-13T05:39:24Z
2021-07-13T03:41:11Z,42.805,6.029,13.3048,4.60057,2470.366,2021-7-13T05:42:27Z
2021-07-13T03:44:14Z,42.805,6.029,13.3041,4.60057,2470.366,2021-7-13T05:45:30Z
2021-07-13T03:47:17Z,42.805,6.029,13.3048,4.60061,2470.366,2021-7-13T05:48:33Z
2021-07-13T03:50:20Z,42.805,6.029,13.3054,4.60046,2470.38,2021-7-13T05:51:36Z
2021-07-13T03:53:23Z,42.805,6.029,13.3057,4.60059,2470.357,2021-7-13T05:54:39Z
2021-07-13T03:56:26Z,42.805,6.029,13.3059,4.60068,2470.334,2021-7-13T05:57:42Z
2021-07-13T03:59:30Z,42.805,6.029,13.3054,4.60046,2470.357,2021-7-13T06:00:45Z
2021-07-13T04:02:33Z,42.805,6.029,13.3043,4.60078,2470.38,2021-7-13T06:03:49Z
2021-07-13T04:05:36Z,42.805,6.029,13.3034,4.60059,2470.343,2021-7-13T06:06:52Z
2021-07-13T04:08:39Z,42.805,6.029,13.3052,4.60041,2470.357,2021-7-13T06:09:55Z
2021-07-13T04:11:42Z,42.805,6.029,13.3054,4.60034,2470.357,2021-7-13T06:12:58Z
2021-07-13T04:14:45Z,42.805,6.029,13.3066,4.60067,2470.38,2021-7-13T06:16:01Z
2021-07-13T04:17:48Z,42.805,6.029,13.3067,4.60058,2470.334,2021-7-13T06:19:04Z
2021-07-13T04:20:51Z,42.805,6.029,13.3064,4.60070,2470.32,2021-7-13T06:22:07Z
2021-07-13T04:23:55Z,42.805,6.029,13.3058,4.60081,2470.343,2021-7-13T06:25:10Z
2021-07-13T04:26:58Z,42.805,6.029,13.3058,4.60080,2470.38,2021-7-13T06:28:14Z
2021-07-13T04:30:01Z,42.805,6.029,13.3055,4.60069,2470.357,2021-7-13T06:31:17Z
2021-07-13T04:33:04Z,42.805,6.029,13.3048,4.60039,2470.343,2021-7-13T06:34:20Z
2021-07-13T04:36:07Z,42.805,6.029,13.3059,4.60037,2470.357,2021-7-13T06:37:23Z
2021-07-13T04:39:10Z,42.805,6.029,13.3039,4.60042,2470.357,2021-7-13T06:40:26Z
2021-07-13T04:42:13Z,42.805,6.029,13.3078,4.60057,2470.38,2021-7-13T06:43:29Z
2021-07-13T04:45:16Z,42.805,6.029,13.3069,4.60079,2470.39,2021-7-13T06:46:32Z
2021-07-13T04:48:20Z,42.805,6.029,13.3079,4.60072,2470.357,2021-7-13T06:49:35Z
2021-07-13T04:51:23Z,42.805,6.029,13.3080,4.60062,2470.334,2021-7-13T06:52:38Z
2021-07-13T04:54:26Z,42.805,6.029,13.3089,4.60081,2470.343,2021-7-13T06:55:42Z
2021-07-13T04:57:29Z,42.805,6.029,13.3076,4.60072,2470.366,2021-7-13T06:58:45Z
2021-07-13T05:00:32Z,42.805,6.029,13.3069,4.60076,2470.404,2021-7-13T07:01:48Z
2021-07-13T05:03:35Z,42.805,6.029,13.3074,4.60074,2470.343,2021-7-13T07:04:51Z
2021-07-13T05:06:38Z,42.805,6.029,13.3056,4.60064,2470.32,2021-7-13T07:07:54Z
2021-07-13T05:09:41Z,42.805,6.029,13.3061,4.60057,2470.38,2021-7-13T07:10:57Z
2021-07-13T05:12:45Z,42.805,6.029,13.3085,4.60057,2470.334,2021-7-13T07:14:00Z
2021-07-13T05:15:48Z,42.805,6.029,13.3057,4.60039,2470.38,2021-7-13T07:17:03Z
2021-07-13T05:18:51Z,42.805,6.029,13.3068,4.60033,2470.343,2021-7-13T07:20:07Z
2021-07-13T05:21:54Z,42.805,6.029,13.3048,4.60029,2470.366,2021-7-13T07:23:10Z
2021-07-13T05:24:57Z,42.805,6.029,13.3070,4.60060,2470.357,2021-7-13T07:26:13Z
2021-07-13T05:28:00Z,42.805,6.029,13.3069,4.60060,2470.357,2021-7-13T07:29:16Z
2021-07-13T05:31:03Z,42.805,6.029,13.3056,4.60031,2470.39,2021-7-13T07:32:19Z
2021-07-13T05:34:06Z,42.805,6.029,13.3049,4.60029,2470.334,2021-7-13T07:35:22Z
2021-07-13T05:37:10Z,42.805,6.029,13.3047,4.60050,2470.39,2021-7-13T07:38:25Z
2021-07-13T05:40:13Z,42.805,6.029,13.3044,4.60081,2470.343,2021-7-13T07:41:28Z
2021-07-13T05:43:16Z,42.805,6.029,13.3061,4.60032,2470.366,2021-7-13T07:44:32Z
2021-07-13T05:46:19Z,42.805,6.029,13.3063,4.60070,2470.32,2021-7-13T07:47:35Z
2021-07-13T05:49:22Z,42.805,6.029,13.3082,4.60041,2470.38,2021-7-13T07:50:38Z
2021-07-13T05:52:25Z,42.805,6.029,13.3060,4.60025,2470.366,2021-7-13T07:53:41Z
2021-07-13T05:55:28Z,42.805,6.029,13.3076,4.60037,2470.366,2021-7-13T07:56:44Z
2021-07-13T05:58:31Z,42.805,6.029,13.3048,4.60057,2470.39,2021-7-13T07:59:47Z
2021-07-13T06:01:35Z,42.805,6.029,13.3058,4.60057,2470.38,2021-7-13T08:02:50Z
2021-07-13T06:04:38Z,42.805,6.029,13.3067,4.60029,2470.38,2021-7-13T08:05:53Z
2021-07-13T06:07:41Z,42.805,6.029,13.3034,4.60018,2470.39,2021-7-13T08:08:57Z
2021-07-13T06:10:44Z,42.805,6.029,13.3067,4.60021,2470.404,2021-7-13T08:12:00Z
2021-07-13T06:13:47Z,42.805,6.029,13.3048,4.60031,2470.38,2021-7-13T08:15:03Z
2021-07-13T06:16:50Z,42.805,6.029,13.3062,4.60038,2470.39,2021-7-13T08:18:06Z
2021-07-13T06:19:53Z,42.805,6.029,13.3040,4.60060,2470.366,2021-7-13T08:21:09Z
2021-07-13T06:22:56Z,42.805,6.029,13.3056,4.60031,2470.39,2021-7-13T08:24:12Z
2021-07-13T06:26:00Z,42.805,6.029,13.3047,4.60075,2470.38,2021-7-13T08:27:15Z
2021-07-13T06:29:03Z,42.805,6.029,13.3030,4.60068,2470.39,2021-7-13T08:30:18Z
2021-07-13T06:32:06Z,42.805,6.029,13.3057,4.60074,2470.413,2021-7-13T08:33:22Z
2021-07-13T06:35:09Z,42.805,6.029,13.3054,4.60046,2470.39,2021-7-13T08:36:25Z
2021-07-13T06:38:12Z,42.805,6.029,13.3067,4.60031,2470.38,2021-7-13T08:39:28Z
2021-07-13T06:41:15Z,42.805,6.029,13.3067,4.60054,2470.404,2021-7-13T08:42:31Z
2021-07-13T06:44:18Z,42.805,6.029,13.3058,4.60026,2470.404,2021-7-13T08:45:34Z
2021-07-13T06:47:21Z,42.805,6.029,13.3051,4.60044,2470.427,2021-7-13T08:48:37Z
2021-07-13T06:50:25Z,42.805,6.029,13.3073,4.60041,2470.404,2021-7-13T08:51:40Z
2021-07-13T06:53:28Z,42.805,6.029,13.3067,4.60046,2470.404,2021-7-13T08:54:43Z
2021-07-13T06:56:31Z,42.805,6.029,13.3056,4.60059,2470.413,2021-7-13T08:57:47Z
2021-07-13T06:59:34Z,42.805,6.029,13.3043,4.60063,2470.413,2021-7-13T09:00:50Z
2021-07-13T07:02:37Z,42.805,6.029,13.3058,4.60040,2470.427,2021-7-13T09:03:53Z
2021-07-13T07:05:40Z,42.805,6.029,13.3041,4.60046,2470.417,2021-7-13T09:06:56Z
2021-07-13T07:08:43Z,42.805,6.029,13.3037,4.60053,2470.404,2021-7-13T09:09:59Z
2021-07-13T07:11:46Z,42.805,6.029,13.3052,4.60052,2470.404,2021-7-13T09:13:02Z
2021-07-13T07:14:49Z,42.805,6.029,13.3048,4.60062,2470.437,2021-7-13T09:16:05Z
2021-07-13T07:17:53Z,42.805,6.029,13.3025,4.60055,2470.427,2021-7-13T09:19:08Z
2021-07-13T07:20:56Z,42.805,6.029,13.3020,4.60057,2470.413,2021-7-13T09:22:11Z
2021-07-13T07:23:59Z,42.805,6.029,13.3029,4.60062,2470.45,2021-7-13T09:25:15Z
2021-07-13T07:27:02Z,42.805,6.029,13.3018,4.60105,2470.39,2021-7-13T09:28:18Z
2021-07-13T07:30:05Z,42.805,6.029,13.3022,4.60072,2470.413,2021-7-13T09:31:21Z
2021-07-13T07:33:08Z,42.805,6.029,13.3020,4.60079,2470.45,2021-7-13T09:34:24Z
2021-07-13T07:36:11Z,42.805,6.029,13.3067,4.60076,2470.427,2021-7-13T09:37:27Z
2021-07-13T07:39:14Z,42.805,6.029,13.3036,4.60069,2470.413,2021-7-13T09:40:30Z
2021-07-13T07:42:18Z,42.805,6.029,13.3083,4.60086,2470.437,2021-7-13T09:43:33Z
2021-07-13T07:45:21Z,42.805,6.029,13.3019,4.60073,2470.437,2021-7-13T09:46:36Z
2021-07-13T07:48:24Z,42.805,6.029,13.3015,4.60070,2470.427,2021-7-13T09:49:40Z
2021-07-13T07:51:27Z,42.805,6.029,13.3022,4.60086,2470.45,2021-7-13T09:52:43Z
2021-07-13T07:54:30Z,42.805,6.029,13.3016,4.60101,2470.45,2021-7-13T09:55:46Z
2021-07-13T07:57:33Z,42.805,6.029,13.3029,4.60128,2470.413,2021-7-13T09:58:49Z
2021-07-13T08:00:36Z,42.805,6.029,13.3028,4.60125,2470.437,2021-7-13T10:01:52Z
2021-07-13T08:03:39Z,42.805,6.029,13.3025,4.60095,2470.413,2021-7-13T10:04:55Z
2021-07-13T08:06:43Z,42.805,6.029,13.3021,4.60094,2470.437,2021-7-13T10:07:58Z
2021-07-13T08:09:46Z,42.805,6.029,13.3025,4.60079,2470.474,2021-7-13T10:11:01Z
2021-07-13T08:12:49Z,42.805,6.029,13.3015,4.60092,2470.437,2021-7-13T10:14:05Z
2021-07-13T08:15:52Z,42.805,6.029,13.3029,4.60076,2470.437,2021-7-13T10:17:08Z
2021-07-13T08:18:55Z,42.805,6.029,13.3019,4.60094,2470.437,2021-7-13T10:20:11Z
2021-07-13T08:21:58Z,42.805,6.029,13.3031,4.60064,2470.474,2021-7-13T10:23:14Z
2021-07-13T08:25:01Z,42.805,6.029,13.3029,4.60084,2470.474,2021-7-13T10:26:17Z
2021-07-13T08:28:04Z,42.805,6.029,13.3020,4.60069,2470.45,2021-7-13T10:29:20Z
2021-07-13T08:31:08Z,42.805,6.029,13.3024,4.60078,2470.497,2021-7-13T10:32:23Z
2021-07-13T08:34:11Z,42.805,6.029,13.3014,4.60082,2470.45,2021-7-13T10:35:26Z
2021-07-13T08:37:14Z,42.805,6.029,13.3015,4.60119,2470.45,2021-7-13T10:38:30Z
2021-07-13T08:40:17Z,42.805,6.029,13.3015,4.60047,2470.45,2021-7-13T10:41:33Z
2021-07-13T08:43:20Z,42.805,6.029,13.3002,4.60070,2470.437,2021-7-13T10:44:36Z
2021-07-13T08:46:23Z,42.805,6.029,13.3005,4.60067,2470.437,2021-7-13T10:47:39Z
2021-07-13T08:49:26Z,42.805,6.029,13.3016,4.60061,2470.45,2021-7-13T10:50:42Z
2021-07-13T08:52:30Z,42.805,6.029,13.3011,4.60062,2470.45,2021-7-13T10:53:45Z
2021-07-13T08:55:33Z,42.805,6.029,13.3006,4.60053,2470.46,2021-7-13T10:56:48Z
2021-07-13T08:58:36Z,42.805,6.029,13.3021,4.60084,2470.46,2021-7-13T10:59:52Z
2021-07-13T09:01:39Z,42.805,6.029,13.3011,4.60082,2470.45,2021-7-13T11:02:55Z
2021-07-13T09:04:42Z,42.805,6.029,13.3010,4.60074,2470.437,2021-7-13T11:05:58Z
2021-07-13T09:07:45Z,42.805,6.029,13.3014,4.60078,2470.46,2021-7-13T11:09:01Z
2021-07-13T09:10:48Z,42.805,6.029,13.3015,4.60072,2470.437,2021-7-13T11:12:04Z
2021-07-13T09:13:51Z,42.805,6.029,13.3005,4.60074,2470.437,2021-7-13T11:15:07Z
2021-07-13T09:16:55Z,42.805,6.029,13.3022,4.60084,2470.474,2021-7-13T11:18:10Z
2021-07-13T09:19:58Z,42.805,6.029,13.3006,4.60064,2470.474,2021-7-13T11:21:13Z
2021-07-13T09:23:01Z,42.805,6.029,13.3016,4.60077,2470.46,2021-7-13T11:24:17Z
2021-07-13T09:26:04Z,42.805,6.029,13.3004,4.60054,2470.45,2021-7-13T11:27:20Z
2021-07-13T09:29:07Z,42.805,6.029,13.3005,4.60071,2470.45,2021-7-13T11:30:23Z
2021-07-13T09:32:10Z,42.805,6.029,13.3004,4.60067,2470.437,2021-7-13T11:33:26Z
2021-07-13T09:35:13Z,42.805,6.029,13.3018,4.60070,2470.46,2021-7-13T11:36:29Z
2021-07-13T09:38:16Z,42.805,6.029,13.3019,4.60087,2470.474,2021-7-13T11:39:32Z
2021-07-13T09:41:20Z,42.805,6.029,13.3021,4.60054,2470.437,2021-7-13T11:42:35Z
2021-07-13T09:44:23Z,42.805,6.029,13.3018,4.60072,2470.413,2021-7-13T11:45:39Z
2021-07-13T09:47:26Z,42.805,6.029,13.3011,4.60072,2470.497,2021-7-13T11:48:42Z
2021-07-13T09:50:29Z,42.805,6.029,13.3015,4.60068,2470.404,2021-7-13T11:51:45Z
2021-07-13T09:53:32Z,42.805,6.029,13.3001,4.60067,2470.413,2021-7-13T11:54:48Z
2021-07-13T09:56:35Z,42.805,6.029,13.3001,4.60084,2470.45,2021-7-13T11:57:51Z
2021-07-13T09:59:38Z,42.805,6.029,13.3018,4.60079,2470.45,2021-7-13T12:00:54Z
2021-07-13T10:02:41Z,42.805,6.029,13.2998,4.60048,2470.46,2021-7-13T12:03:57Z
2021-07-13T10:05:45Z,42.805,6.029,13.2996,4.60070,2470.46,2021-7-13T12:07:00Z
2021-07-13T10:08:48Z,42.805,6.029,13.3006,4.60066,2470.437,2021-7-13T12:10:04Z
2021-07-13T10:11:51Z,42.805,6.029,13.3020,4.60062,2470.45,2021-7-13T12:13:07Z
2021-07-13T10:14:54Z,42.805,6.029,13.3009,4.60069,2470.46,2021-7-13T12:16:10Z
2021-07-13T10:17:57Z,42.805,6.029,13.3001,4.60067,2470.474,2021-7-13T12:19:13Z
2021-07-13T10:21:00Z,42.805,6.029,13.3014,4.60056,2470.413,2021-7-13T12:22:16Z
2021-07-13T10:24:03Z,42.805,6.029,13.3006,4.60049,2470.474,2021-7-13T12:25:19Z
2021-07-13T10:27:07Z,42.805,6.029,13.3008,4.60058,2470.45,2021-7-13T12:28:22Z
2021-07-13T10:30:10Z,42.805,6.029,13.3013,4.60078,2470.413,2021-7-13T12:31:25Z
2021-07-13T10:33:13Z,42.805,6.029,13.3015,4.60076,2470.437,2021-7-13T12:34:29Z
2021-07-13T10:36:16Z,42.805,6.029,13.3021,4.60047,2470.437,2021-7-13T12:37:32Z
2021-07-13T10:39:19Z,42.805,6.029,13.3012,4.60033,2470.45,2021-7-13T12:40:35Z
2021-07-13T10:42:22Z,42.805,6.029,13.3014,4.60076,2470.437,2021-7-13T12:43:38Z
2021-07-13T10:45:25Z,42.805,6.029,13.3017,4.60109,2470.39,2021-7-13T12:46:41Z
2021-07-13T10:48:28Z,42.805,6.029,13.3006,4.60074,2470.437,2021-7-13T12:49:44Z
2021-07-13T10:51:32Z,42.805,6.029,13.3038,4.60074,2470.413,2021-7-13T12:52:47Z
2021-07-13T10:54:35Z,42.805,6.029,13.3004,4.60066,2470.474,2021-7-13T12:55:50Z
2021-07-13T10:57:38Z,42.805,6.029,13.3012,4.60059,2470.427,2021-7-13T12:58:54Z
2021-07-13T11:00:41Z,42.805,6.029,13.3001,4.60058,2470.437,2021-7-13T13:01:57Z
2021-07-13T11:03:44Z,42.805,6.029,13.3015,4.60067,2470.39,2021-7-13T13:05:00Z
2021-07-13T11:06:47Z,42.805,6.029,13.3011,4.60095,2470.413,2021-7-13T13:08:03Z
2021-07-13T11:09:50Z,42.805,6.029,13.3016,4.60067,2470.413,2021-7-13T13:11:06Z
2021-07-13T11:12:53Z,42.805,6.029,13.3017,4.60046,2470.413,2021-7-13T13:14:09Z
2021-07-13T11:15:57Z,42.805,6.029,13.3014,4.60071,2470.427,2021-7-13T13:17:12Z
2021-07-13T11:19:00Z,42.805,6.029,13.3012,4.60044,2470.404,2021-7-13T13:20:16Z
2021-07-13T11:22:03Z,42.805,6.029,13.3002,4.60041,2470.39,2021-7-13T13:23:19Z
2021-07-13T11:25:06Z,42.805,6.029,13.3008,4.60070,2470.413,2021-7-13T13:26:22Z
2021-07-13T11:28:09Z,42.805,6.029,13.3010,4.60072,2470.413,2021-7-13T13:29:25Z
2021-07-13T11:31:12Z,42.805,6.029,13.3021,4.60077,2470.38,2021-7-13T13:32:28Z
2021-07-13T11:34:15Z,42.805,6.029,13.3011,4.60072,2470.427,2021-7-13T13:35:31Z
2021-07-13T11:37:18Z,42.805,6.029,13.3038,4.60099,2470.39,2021-7-13T13:38:34Z
2021-07-13T11:40:22Z,42.805,6.029,13.3031,4.60092,2470.413,2021-7-13T13:41:37Z
2021-07-13T11:43:25Z,42.805,6.029,13.3037,4.60046,2470.38,2021-7-13T13:44:41Z
2021-07-13T11:46:28Z,42.805,6.029,13.3032,4.60043,2470.38,2021-7-13T13:47:44Z
2021-07-13T11:49:31Z,42.805,6.029,13.3036,4.60052,2470.39,2021-7-13T13:50:47Z
2021-07-13T11:52:34Z,42.805,6.029,13.3026,4.60091,2470.38,2021-7-13T13:53:50Z
2021-07-13T11:55:37Z,42.805,6.029,13.3010,4.60090,2470.366,2021-7-13T13:56:53Z
2021-07-13T11:58:40Z,42.805,6.029,13.3011,4.60064,2470.39,2021-7-13T13:59:56Z
2021-07-13T12:01:43Z,42.805,6.029,13.3027,4.60099,2470.38,2021-7-13T14:02:59Z
2021-07-13T12:04:47Z,42.805,6.029,13.3021,4.60052,2470.404,2021-7-13T14:06:02Z
2021-07-13T12:07:50Z,42.805,6.029,13.3033,4.60059,2470.38,2021-7-13T14:09:06Z
2021-07-13T12:10:53Z,42.805,6.029,13.3031,4.60064,2470.357,2021-7-13T14:12:09Z
2021-07-13T12:13:56Z,42.805,6.029,13.3027,4.60087,2470.366,2021-7-13T14:15:12Z
2021-07-13T12:16:59Z,42.805,6.029,13.3020,4.60046,2470.343,2021-7-13T14:18:15Z
2021-07-13T12:20:02Z,42.805,6.029,13.3023,4.60084,2470.366,2021-7-13T14:21:18Z
2021-07-13T12:23:05Z,42.805,6.029,13.3022,4.60096,2470.366,2021-7-13T14:24:21Z
2021-07-13T12:26:08Z,42.805,6.029,13.3023,4.60057,2470.38,2021-7-13T14:27:24Z
2021-07-13T12:29:12Z,42.805,6.029,13.3026,4.60049,2470.357,2021-7-13T14:30:27Z
2021-07-13T12:32:15Z,42.805,6.029,13.3046,4.60039,2470.357,2021-7-13T14:33:31Z
2021-07-13T12:35:18Z,42.805,6.029,13.3044,4.60064,2470.357,2021-7-13T14:36:34Z
2021-07-13T12:38:21Z,42.805,6.029,13.3056,4.60059,2470.38,2021-7-13T14:39:37Z
2021-07-13T12:41:24Z,42.805,6.029,13.3043,4.60094,2470.334,2021-7-13T14:42:40Z
2021-07-13T12:44:27Z,42.805,6.029,13.3044,4.60097,2470.343,2021-7-13T14:45:43Z
2021-07-13T12:47:30Z,42.805,6.029,13.3072,4.60081,2470.343,2021-7-13T14:48:46Z
2021-07-13T12:50:34Z,42.805,6.029,13.3065,4.60063,2470.366,2021-7-13T14:51:49Z
2021-07-13T12:53:37Z,42.805,6.029,13.3069,4.60117,2470.343,2021-7-13T14:54:52Z
2021-07-13T12:56:40Z,42.805,6.029,13.3062,4.60101,2470.32,2021-7-13T14:57:56Z
2021-07-13T12:59:43Z,42.805,6.029,13.3070,4.60112,2470.334,2021-7-13T15:00:59Z
2021-07-13T13:02:46Z,42.805,6.029,13.3058,4.60051,2470.297,2021-7-13T15:04:02Z
2021-07-13T13:05:49Z,42.805,6.029,13.3069,4.60052,2470.343,2021-7-13T15:07:05Z
2021-07-13T13:08:52Z,42.805,6.029,13.3048,4.60082,2470.357,2021-7-13T15:10:08Z
2021-07-13T13:11:55Z,42.805,6.029,13.3042,4.60079,2470.334,2021-7-13T15:13:11Z
2021-07-13T13:14:59Z,42.805,6.029,13.3060,4.60042,2470.343,2021-7-13T15:16:14Z
2021-07-13T13:18:02Z,42.805,6.029,13.3054,4.60057,2470.334,2021-7-13T15:19:17Z
2021-07-13T13:21:05Z,42.805,6.029,13.3078,4.60053,2470.357,2021-7-13T15:22:21Z
2021-07-13T13:24:08Z,42.805,6.029,13.3051,4.60047,2470.334,2021-7-13T15:25:24Z
2021-07-13T13:27:11Z,42.805,6.029,13.3063,4.60052,2470.357,2021-7-13T15:28:27Z
2021-07-13T13:30:14Z,42.805,6.029,13.3060,4.60050,2470.31,2021-7-13T15:31:30Z
2021-07-13T13:33:17Z,42.805,6.029,13.3044,4.60057,2470.33,2021-7-13T15:34:33Z
2021-07-13T13:36:20Z,42.805,6.029,13.3044,4.60050,2470.357,2021-7-13T15:37:36Z
2021-07-13T13:39:24Z,42.805,6.029,13.3050,4.60065,2470.334,2021-7-13T15:40:39Z
2021-07-13T13:42:27Z,42.805,6.029,13.3030,4.60064,2470.334,2021-7-13T15:43:43Z
2021-07-13T13:45:30Z,42.805,6.029,13.3014,4.60068,2470.357,2021-7-13T15:46:46Z
2021-07-13T13:48:33Z,42.805,6.029,13.3058,4.60061,2470.31,2021-7-13T15:49:49Z
2021-07-13T13:51:36Z,42.805,6.029,13.3045,4.60042,2470.31,2021-7-13T15:52:52Z
2021-07-13T13:54:39Z,42.805,6.029,13.3041,4.60026,2470.334,2021-7-13T15:55:55Z
2021-07-13T13:57:42Z,42.805,6.029,13.3053,4.60087,2470.334,2021-7-13T15:58:58Z
2021-07-13T14:00:45Z,42.805,6.029,13.3044,4.60069,2470.334,2021-7-13T16:02:01Z
2021-07-13T14:03:49Z,42.805,6.029,13.3024,4.60076,2470.297,2021-7-13T16:05:04Z
2021-07-13T14:06:52Z,42.805,6.029,13.3022,4.60057,2470.357,2021-7-13T16:08:08Z
2021-07-13T14:09:55Z,42.805,6.029,13.3025,4.60052,2470.38,2021-7-13T16:11:11Z
2021-07-13T14:12:58Z,42.805,6.029,13.3039,4.60026,2470.31,2021-7-13T16:14:14Z
2021-07-13T14:16:01Z,42.805,6.029,13.3014,4.60051,2470.297,2021-7-13T16:17:17Z
2021-07-13T14:19:04Z,42.805,6.029,13.3011,4.60022,2470.334,2021-7-13T16:20:20Z
2021-07-13T14:22:07Z,42.805,6.029,13.3041,4.60049,2470.273,2021-7-13T16:23:23Z
2021-07-13T14:25:10Z,42.805,6.029,13.3047,4.60046,2470.32,2021-7-13T16:26:26Z
2021-07-13T14:28:14Z,42.805,6.029,13.3043,4.60049,2470.297,2021-7-13T16:29:29Z
2021-07-13T14:31:17Z,42.805,6.029,13.3071,4.60036,2470.31,2021-7-13T16:32:33Z
2021-07-13T14:34:20Z,42.805,6.029,13.3066,4.60041,2470.297,2021-7-13T16:35:36Z
2021-07-13T14:37:23Z,42.805,6.029,13.3041,4.60032,2470.31,2021-7-13T16:38:39Z
2021-07-13T14:40:26Z,42.805,6.029,13.3036,4.60052,2470.31,2021-7-13T16:41:42Z
2021-07-13T14:43:29Z,42.805,6.029,13.3048,4.60057,2470.31,2021-7-13T16:44:45Z
2021-07-13T14:46:32Z,42.805,6.029,13.3042,4.60056,2470.273,2021-7-13T16:47:48Z
2021-07-13T14:49:36Z,42.805,6.029,13.3048,4.60070,2470.297,2021-7-13T16:50:51Z
2021-07-13T14:52:39Z,42.805,6.029,13.3035,4.60096,2470.31,2021-7-13T16:53:54Z
2021-07-13T14:55:42Z,42.805,6.029,13.3024,4.60058,2470.287,2021-7-13T16:56:58Z
2021-07-13T14:58:45Z,42.805,6.029,13.3040,4.60039,2470.334,2021-7-13T17:00:01Z
2021-07-13T15:01:48Z,42.805,6.029,13.3046,4.60021,2470.31,2021-7-13T17:03:04Z
2021-07-13T15:04:51Z,42.805,6.029,13.3088,4.60028,2470.31,2021-7-13T17:06:07Z
2021-07-13T15:07:54Z,42.805,6.029,13.3070,4.60021,2470.297,2021-7-13T17:09:10Z
2021-07-13T15:10:57Z,42.805,6.029,13.3063,4.60022,2470.31,2021-7-13T17:12:13Z
2021-07-13T15:14:01Z,42.805,6.029,13.3058,4.60033,2470.273,2021-7-13T17:15:16Z